Time,TemperatureF,DewpointF,PressureIn,WindDirection,WindDirectionDegrees,WindSpeedMPH,WindSpeedGustMPH,Humidity,HourlyPrecipIn,Conditions,Clouds,dailyrainin,SolarRadiationWatts/m^2,SoftwareType,DateUTC
2013-07-04 00:00:00,79.6,74.0,29.89,SE,136,6.0,9.2,83,0.00,,---,0.00,0.00,VWS V14.01,2013-07-04 05:00:00,
2013-07-04 00:01:00,79.6,74.0,29.89,SE,136,8.0,9.2,83,0.00,,---,0.00,0.00,VWS V14.01,2013-07-04 05:01:00,
2013-07-04 00:05:00,79.6,74.3,29.89,SE,142,6.0,9.2,84,0.00,,---,0.00,0.00,VWS V14.01,2013-07-04 05:05:00,
2013-07-04 00:06:00,79.6,74.3,29.89,SE,143,7.0,9.2,84,0.00,,---,0.00,0.00,VWS V14.01,2013-07-04 05:06:00,
2013-07-04 00:10:00,79.4,74.2,29.89,SE,141,2.0,7.2,84,0.00,,---,0.00,0.00,VWS V14.01,2013-07-04 05:10:00,
2013-07-04 00:11:00,79.4,74.2,29.89,SE,141,4.0,7.2,84,0.00,,---,0.00,0.00,VWS V14.01,2013-07-04 05:11:00,
2013-07-04 00:15:00,79.4,74.2,29.88,SE,140,2.0,8.2,84,0.00,,---,0.00,0.00,VWS V14.01,2013-07-04 05:15:00,
2013-07-04 00:16:00,79.4,74.2,29.88,SE,140,2.0,8.2,84,0.00,,---,0.00,0.00,VWS V14.01,2013-07-04 05:16:00,
2013-07-04 00:20:00,79.4,74.2,29.88,SSE,150,7.0,10.2,84,0.00,,---,0.00,0.00,VWS V14.01,2013-07-04 05:20:00,
2013-07-04 00:21:00,79.4,74.2,29.88,SSE,149,9.0,10.2,84,0.00,,---,0.00,0.00,VWS V14.01,2013-07-04 05:21:00,
2013-07-04 00:25:00,79.6,74.3,29.88,SE,145,4.0,10.2,84,0.00,,---,0.00,0.00,VWS V14.01,2013-07-04 05:25:00,
2013-07-04 00:26:00,79.6,74.3,29.88,SE,144,3.0,10.2,84,0.00,,---,0.00,0.00,VWS V14.01,2013-07-04 05:26:00,
2013-07-04 00:30:00,79.4,74.2,29.88,SE,136,5.0,9.2,84,0.00,,---,0.00,0.00,VWS V14.01,2013-07-04 05:30:00,
2013-07-04 00:31:00,79.4,74.2,29.88,SSE,148,8.0,9.2,84,0.00,,---,0.00,0.00,VWS V14.01,2013-07-04 05:31:00,
2013-07-04 00:35:00,79.4,74.2,29.88,SSE,153,5.0,9.2,84,0.00,,---,0.00,0.00,VWS V14.01,2013-07-04 05:35:00,
2013-07-04 00:36:00,79.4,74.2,29.88,SSE,153,3.0,9.2,84,0.00,,---,0.00,0.00,VWS V14.01,2013-07-04 05:36:00,
2013-07-04 00:40:00,79.4,74.2,29.88,SE,138,2.0,8.2,84,0.00,,---,0.00,0.00,VWS V14.01,2013-07-04 05:40:00,
2013-07-04 00:41:00,79.4,74.2,29.88,SE,138,2.0,8.2,84,0.00,,---,0.00,0.00,VWS V14.01,2013-07-04 05:41:00,
2013-07-04 00:45:00,79.2,73.9,29.88,SE,138,3.0,9.2,84,0.00,,---,0.00,0.00,VWS V14.01,2013-07-04 05:45:00,
2013-07-04 00:46:00,79.2,73.9,29.88,SE,138,4.0,9.2,84,0.00,,---,0.00,0.00,VWS V14.01,2013-07-04 05:46:00,
2013-07-04 00:50:00,79.2,73.9,29.88,SE,139,2.0,6.2,84,0.00,,---,0.00,0.00,VWS V14.01,2013-07-04 05:50:00,
2013-07-04 00:51:00,79.2,73.9,29.88,SE,139,3.0,6.2,84,0.00,,---,0.00,0.00,VWS V14.01,2013-07-04 05:51:00,
2013-07-04 00:55:00,79.4,74.2,29.88,SE,144,3.0,8.2,84,0.00,,---,0.00,0.00,VWS V14.01,2013-07-04 05:55:00,
2013-07-04 00:56:00,79.4,74.2,29.88,SE,144,3.0,8.2,84,0.00,,---,0.00,0.00,VWS V14.01,2013-07-04 05:56:00,
2013-07-04 01:00:00,79.6,74.3,29.88,SSE,149,4.0,10.2,84,0.00,,---,0.00,0.00,VWS V14.01,2013-07-04 06:00:00,
2013-07-04 01:01:00,79.6,74.3,29.88,SSE,148,6.0,10.2,84,0.00,,---,0.00,0.00,VWS V14.01,2013-07-04 06:01:00,
2013-07-04 01:05:00,79.6,74.3,29.88,SE,137,2.0,8.2,84,0.00,,---,0.00,0.00,VWS V14.01,2013-07-04 06:05:00,
2013-07-04 01:06:00,79.6,74.3,29.88,SE,137,3.0,8.2,84,0.00,,---,0.00,0.00,VWS V14.01,2013-07-04 06:06:00,
2013-07-04 01:10:00,79.8,74.5,29.88,SE,138,5.0,7.2,84,0.00,,---,0.00,0.00,VWS V14.01,2013-07-04 06:10:00,
2013-07-04 01:11:00,79.8,74.5,29.88,SE,138,3.0,7.2,84,0.00,,---,0.00,0.00,VWS V14.01,2013-07-04 06:11:00,
2013-07-04 01:15:00,79.6,74.3,29.88,SE,138,2.0,7.2,84,0.00,,---,0.00,0.00,VWS V14.01,2013-07-04 06:15:00,
2013-07-04 01:16:00,79.6,74.3,29.88,SE,138,4.0,7.2,84,0.00,,---,0.00,0.00,VWS V14.01,2013-07-04 06:16:00,
2013-07-04 01:20:00,79.6,74.3,29.88,SE,139,4.0,8.2,84,0.00,,---,0.00,0.00,VWS V14.01,2013-07-04 06:20:00,
2013-07-04 01:21:00,79.6,74.3,29.88,SE,139,3.0,8.2,84,0.00,,---,0.00,0.00,VWS V14.01,2013-07-04 06:21:00,
2013-07-04 01:25:00,79.6,74.3,29.88,SE,139,4.0,6.2,84,0.00,,---,0.00,0.00,VWS V14.01,2013-07-04 06:25:00,
2013-07-04 01:26:00,79.6,74.3,29.88,SE,139,1.0,6.2,84,0.00,,---,0.00,0.00,VWS V14.01,2013-07-04 06:26:00,
2013-07-04 01:30:00,79.4,74.2,29.89,SSE,152,6.0,7.2,84,0.00,,---,0.00,0.00,VWS V14.01,2013-07-04 06:30:00,
2013-07-04 01:31:00,79.4,74.2,29.89,SSE,147,3.0,7.2,84,0.00,,---,0.00,0.00,VWS V14.01,2013-07-04 06:31:00,
2013-07-04 01:35:00,79.2,74.3,29.89,SSE,149,5.0,8.2,85,0.00,,---,0.00,0.00,VWS V14.01,2013-07-04 06:35:00,
2013-07-04 01:36:00,79.2,74.3,29.89,SSE,149,3.0,8.2,85,0.00,,---,0.00,0.00,VWS V14.01,2013-07-04 06:36:00,
2013-07-04 01:40:00,79.2,74.3,29.89,SSE,149,1.0,6.2,85,0.00,,---,0.00,0.00,VWS V14.01,2013-07-04 06:40:00,
2013-07-04 01:41:00,79.2,74.3,29.89,SSE,149,1.0,6.2,85,0.00,,---,0.00,0.00,VWS V14.01,2013-07-04 06:41:00,
2013-07-04 01:45:00,79.0,74.5,29.89,SSE,149,2.0,6.2,86,0.00,,---,0.00,0.00,VWS V14.01,2013-07-04 06:45:00,
2013-07-04 01:46:00,79.0,74.5,29.89,SSE,149,3.0,6.2,86,0.00,,---,0.00,0.00,VWS V14.01,2013-07-04 06:46:00,
2013-07-04 01:50:00,79.0,74.5,29.89,SSE,159,4.0,6.2,86,0.00,,---,0.00,0.00,VWS V14.01,2013-07-04 06:50:00,
2013-07-04 01:51:00,79.0,74.5,29.89,SSE,159,3.0,6.2,86,0.00,,---,0.00,0.00,VWS V14.01,2013-07-04 06:51:00,
2013-07-04 01:55:00,78.8,74.3,29.89,SSE,159,0.0,5.2,86,0.00,,---,0.00,0.00,VWS V14.01,2013-07-04 06:55:00,
2013-07-04 01:56:00,78.8,74.3,29.89,SSE,159,1.0,5.2,86,0.00,,---,0.00,0.00,VWS V14.01,2013-07-04 06:56:00,
2013-07-04 02:00:00,78.8,74.3,29.89,SSE,159,0.0,3.2,86,0.00,,---,0.00,0.00,VWS V14.01,2013-07-04 07:00:00,
2013-07-04 02:01:00,78.8,74.3,29.89,SSE,159,0.0,3.2,86,0.00,,---,0.00,0.00,VWS V14.01,2013-07-04 07:01:00,
2013-07-04 02:05:00,78.6,74.4,29.89,SSE,159,1.0,4.2,87,0.00,,---,0.00,0.00,VWS V14.01,2013-07-04 07:05:00,
2013-07-04 02:06:00,78.6,74.4,29.89,SSE,159,0.0,4.2,87,0.00,,---,0.00,0.00,VWS V14.01,2013-07-04 07:06:00,
2013-07-04 02:10:00,78.5,74.3,29.89,SSE,159,0.0,4.2,87,0.00,,---,0.00,0.00,VWS V14.01,2013-07-04 07:10:00,
2013-07-04 02:11:00,78.5,74.3,29.89,SSE,159,0.0,4.2,87,0.00,,---,0.00,0.00,VWS V14.01,2013-07-04 07:11:00,
2013-07-04 02:15:00,78.5,74.3,29.89,SSE,159,2.0,3.2,87,0.00,,---,0.00,0.00,VWS V14.01,2013-07-04 07:15:00,
2013-07-04 02:16:00,78.5,74.3,29.89,SSE,159,1.0,2.2,87,0.00,,---,0.00,0.00,VWS V14.01,2013-07-04 07:16:00,
2013-07-04 02:20:00,78.5,74.3,29.89,SSE,159,0.0,4.2,87,0.00,,---,0.00,0.00,VWS V14.01,2013-07-04 07:20:00,
2013-07-04 02:21:00,78.5,74.3,29.89,SSE,159,0.0,4.2,87,0.00,,---,0.00,0.00,VWS V14.01,2013-07-04 07:21:00,
2013-07-04 02:25:00,78.5,74.3,29.89,SSE,159,0.0,3.2,87,0.00,,---,0.00,0.00,VWS V14.01,2013-07-04 07:25:00,
2013-07-04 02:26:00,78.5,74.3,29.89,SSE,159,2.0,3.2,87,0.00,,---,0.00,0.00,VWS V14.01,2013-07-04 07:26:00,
2013-07-04 02:30:00,78.5,74.3,29.88,SSE,159,0.0,4.2,87,0.00,,---,0.00,0.00,VWS V14.01,2013-07-04 07:30:00,
2013-07-04 02:31:00,78.5,74.3,29.88,SSE,159,0.0,4.2,87,0.00,,---,0.00,0.00,VWS V14.01,2013-07-04 07:31:00,
2013-07-04 02:35:00,78.5,74.0,29.88,SSE,159,0.0,2.2,86,0.00,,---,0.00,0.00,VWS V14.01,2013-07-04 07:35:00,
2013-07-04 02:36:00,78.5,74.0,29.88,SSE,159,0.0,2.2,86,0.00,,---,0.00,0.00,VWS V14.01,2013-07-04 07:36:00,
2013-07-04 02:40:00,78.3,73.8,29.88,SSE,159,0.0,4.2,86,0.00,,---,0.00,0.00,VWS V14.01,2013-07-04 07:40:00,
2013-07-04 02:41:00,78.3,73.8,29.88,SSE,159,0.0,4.2,86,0.00,,---,0.00,0.00,VWS V14.01,2013-07-04 07:41:00,
2013-07-04 02:45:00,78.1,73.9,29.88,SSE,159,1.0,4.2,87,0.00,,---,0.00,0.00,VWS V14.01,2013-07-04 07:45:00,
2013-07-04 02:46:00,78.1,73.9,29.88,SSE,159,1.0,4.2,87,0.00,,---,0.00,0.00,VWS V14.01,2013-07-04 07:46:00,
2013-07-04 02:50:00,77.9,73.7,29.88,SSE,159,0.0,4.2,87,0.00,,---,0.00,0.00,VWS V14.01,2013-07-04 07:50:00,
2013-07-04 02:51:00,77.9,73.7,29.88,SSE,159,0.0,4.2,87,0.00,,---,0.00,0.00,VWS V14.01,2013-07-04 07:51:00,
2013-07-04 02:55:00,77.7,73.5,29.88,SSE,159,0.0,3.2,87,0.00,,---,0.00,0.00,VWS V14.01,2013-07-04 07:55:00,
2013-07-04 02:56:00,77.7,73.5,29.88,SSE,159,0.0,3.2,87,0.00,,---,0.00,0.00,VWS V14.01,2013-07-04 07:56:00,
2013-07-04 03:00:00,77.6,73.8,29.87,SSE,159,1.0,2.2,88,0.00,,---,0.00,0.00,VWS V14.01,2013-07-04 08:00:00,
2013-07-04 03:01:00,77.6,73.8,29.87,SSE,159,0.0,2.2,88,0.00,,---,0.00,0.00,VWS V14.01,2013-07-04 08:01:00,
2013-07-04 03:05:00,77.4,73.6,29.87,SSE,159,0.0,3.2,88,0.00,,---,0.00,0.00,VWS V14.01,2013-07-04 08:05:00,
2013-07-04 03:06:00,77.4,73.6,29.87,SSE,159,1.0,3.2,88,0.00,,---,0.00,0.00,VWS V14.01,2013-07-04 08:06:00,
2013-07-04 03:10:00,77.4,73.6,29.87,SSE,159,0.0,3.2,88,0.00,,---,0.00,0.00,VWS V14.01,2013-07-04 08:10:00,
2013-07-04 03:11:00,77.4,73.6,29.87,SSE,159,0.0,3.2,88,0.00,,---,0.00,0.00,VWS V14.01,2013-07-04 08:11:00,
2013-07-04 03:15:00,77.4,73.6,29.87,SSE,159,0.0,3.2,88,0.00,,---,0.00,0.00,VWS V14.01,2013-07-04 08:15:00,
2013-07-04 03:16:00,77.4,73.6,29.87,SSE,159,0.0,3.2,88,0.00,,---,0.00,0.00,VWS V14.01,2013-07-04 08:16:00,
2013-07-04 03:20:00,77.2,73.4,29.87,SSE,159,0.0,2.2,88,0.00,,---,0.00,0.00,VWS V14.01,2013-07-04 08:20:00,
2013-07-04 03:21:00,77.2,73.4,29.87,SSE,159,0.0,2.2,88,0.00,,---,0.00,0.00,VWS V14.01,2013-07-04 08:21:00,
2013-07-04 03:25:00,77.0,73.2,29.87,SSE,159,0.0,1.2,88,0.00,,---,0.00,0.00,VWS V14.01,2013-07-04 08:25:00,
2013-07-04 03:26:00,77.0,73.2,29.87,SSE,159,0.0,1.2,88,0.00,,---,0.00,0.00,VWS V14.01,2013-07-04 08:26:00,
2013-07-04 03:30:00,76.8,73.0,29.87,SSE,159,0.0,1.2,88,0.00,,---,0.00,0.00,VWS V14.01,2013-07-04 08:30:00,
2013-07-04 03:31:00,76.8,73.0,29.87,SSE,159,0.0,1.2,88,0.00,,---,0.00,0.00,VWS V14.01,2013-07-04 08:31:00,
2013-07-04 03:35:00,76.7,73.2,29.87,SSE,159,0.0,1.2,89,0.00,,---,0.00,0.00,VWS V14.01,2013-07-04 08:35:00,
2013-07-04 03:36:00,76.7,73.2,29.87,SSE,159,0.0,1.2,89,0.00,,---,0.00,0.00,VWS V14.01,2013-07-04 08:36:00,
2013-07-04 03:40:00,76.5,73.0,29.87,SSE,159,0.0,1.2,89,0.00,,---,0.00,0.00,VWS V14.01,2013-07-04 08:40:00,
2013-07-04 03:41:00,76.5,73.0,29.87,SSE,159,0.0,1.2,89,0.00,,---,0.00,0.00,VWS V14.01,2013-07-04 08:41:00,
2013-07-04 03:45:00,76.3,73.2,29.87,SSE,159,0.0,1.2,90,0.00,,---,0.00,0.00,VWS V14.01,2013-07-04 08:45:00,
2013-07-04 03:46:00,76.3,73.2,29.87,SSE,159,0.0,1.2,90,0.00,,---,0.00,0.00,VWS V14.01,2013-07-04 08:46:00,
2013-07-04 03:50:00,76.1,73.0,29.87,SSE,159,0.0,1.2,90,0.00,,---,0.00,0.00,VWS V14.01,2013-07-04 08:50:00,
2013-07-04 03:51:00,76.1,73.0,29.87,SSE,159,0.0,1.2,90,0.00,,---,0.00,0.00,VWS V14.01,2013-07-04 08:51:00,
2013-07-04 03:55:00,76.0,73.2,29.87,SSE,159,0.0,1.2,91,0.00,,---,0.00,0.00,VWS V14.01,2013-07-04 08:55:00,
2013-07-04 03:56:00,76.0,72.9,29.87,SSE,159,0.0,1.2,90,0.00,,---,0.00,0.00,VWS V14.01,2013-07-04 08:56:00,
2013-07-04 04:00:00,75.8,73.0,29.86,SSE,159,0.0,1.2,91,0.00,,---,0.00,0.00,VWS V14.01,2013-07-04 09:00:00,
2013-07-04 04:01:00,75.8,73.0,29.86,SSE,159,0.0,1.2,91,0.00,,---,0.00,0.00,VWS V14.01,2013-07-04 09:01:00,
2013-07-04 04:05:00,75.6,72.8,29.86,SSE,159,0.0,1.2,91,0.00,,---,0.00,0.00,VWS V14.01,2013-07-04 09:05:00,
2013-07-04 04:06:00,75.6,72.8,29.86,SSE,159,0.0,1.2,91,0.00,,---,0.00,0.00,VWS V14.01,2013-07-04 09:06:00,
2013-07-04 04:10:00,75.4,72.9,29.86,SSE,159,0.0,1.2,92,0.00,,---,0.00,0.00,VWS V14.01,2013-07-04 09:10:00,
2013-07-04 04:11:00,75.4,72.9,29.86,SSE,159,0.0,1.2,92,0.00,,---,0.00,0.00,VWS V14.01,2013-07-04 09:11:00,
2013-07-04 04:15:00,75.3,72.8,29.86,SSE,159,0.0,1.2,92,0.00,,---,0.00,0.00,VWS V14.01,2013-07-04 09:15:00,
2013-07-04 04:16:00,75.3,72.8,29.86,SSE,159,0.0,1.2,92,0.00,,---,0.00,0.00,VWS V14.01,2013-07-04 09:16:00,
2013-07-04 04:20:00,75.1,72.6,29.86,SSE,159,0.0,1.2,92,0.00,,---,0.00,0.00,VWS V14.01,2013-07-04 09:20:00,
2013-07-04 04:21:00,75.1,72.6,29.86,SSE,159,0.0,1.2,92,0.00,,---,0.00,0.00,VWS V14.01,2013-07-04 09:21:00,
2013-07-04 04:25:00,74.9,72.4,29.86,SSE,159,0.0,1.2,92,0.00,,---,0.00,0.00,VWS V14.01,2013-07-04 09:25:00,
2013-07-04 04:26:00,74.9,72.4,29.86,SSE,159,0.0,1.2,92,0.00,,---,0.00,0.00,VWS V14.01,2013-07-04 09:26:00,
2013-07-04 04:30:00,74.9,72.4,29.86,SSE,159,0.0,1.2,92,0.00,,---,0.00,0.00,VWS V14.01,2013-07-04 09:30:00,
2013-07-04 04:35:00,74.7,72.6,29.86,SSE,159,0.0,1.2,93,0.00,,---,0.00,0.00,VWS V14.01,2013-07-04 09:35:00,
2013-07-04 04:40:00,74.6,72.4,29.86,SSE,159,0.0,1.2,93,0.00,,---,0.00,0.00,VWS V14.01,2013-07-04 09:40:00,
2013-07-04 04:45:00,74.4,72.2,29.86,SSE,159,0.0,1.2,93,0.00,,---,0.00,0.00,VWS V14.01,2013-07-04 09:45:00,
2013-07-04 04:50:00,74.4,72.2,29.86,SSE,159,0.0,1.2,93,0.00,,---,0.00,0.00,VWS V14.01,2013-07-04 09:50:00,
2013-07-04 04:55:00,74.4,72.2,29.86,SSE,159,0.0,1.2,93,0.00,,---,0.00,0.00,VWS V14.01,2013-07-04 09:55:00,
2013-07-04 05:00:00,74.4,72.6,29.86,SSE,159,0.0,1.2,94,0.00,,---,0.00,0.00,VWS V14.01,2013-07-04 10:00:00,
2013-07-04 05:05:00,74.2,72.4,29.86,SSE,159,0.0,1.2,94,0.00,,---,0.00,0.00,VWS V14.01,2013-07-04 10:05:00,
2013-07-04 05:10:00,74.2,72.4,29.86,SSE,159,0.0,1.2,94,0.00,,---,0.00,0.00,VWS V14.01,2013-07-04 10:10:00,
2013-07-04 05:15:00,73.9,72.1,29.86,SSE,159,0.0,1.2,94,0.00,,---,0.00,0.00,VWS V14.01,2013-07-04 10:15:00,
2013-07-04 05:20:00,73.7,71.9,29.86,SSE,159,0.0,1.2,94,0.00,,---,0.00,0.00,VWS V14.01,2013-07-04 10:20:00,
2013-07-04 05:25:00,73.7,71.9,29.86,SSE,159,0.0,1.2,94,0.00,,---,0.00,0.00,VWS V14.01,2013-07-04 10:25:00,
2013-07-04 05:30:00,73.7,72.2,29.86,SSE,159,0.0,1.2,95,0.00,,---,0.00,0.00,VWS V14.01,2013-07-04 10:30:00,
2013-07-04 05:35:00,73.5,72.0,29.86,SSE,159,0.0,1.2,95,0.00,,---,0.00,0.00,VWS V14.01,2013-07-04 10:35:00,
2013-07-04 05:40:00,73.7,72.2,29.86,SSE,159,0.0,1.2,95,0.00,,---,0.00,0.00,VWS V14.01,2013-07-04 10:40:00,
2013-07-04 05:45:00,73.7,72.2,29.86,SSE,159,0.0,1.2,95,0.00,,---,0.00,0.00,VWS V14.01,2013-07-04 10:45:00,
2013-07-04 05:50:00,73.9,72.4,29.86,SSE,159,0.0,1.2,95,0.00,,---,0.00,0.00,VWS V14.01,2013-07-04 10:50:00,
2013-07-04 05:55:00,73.7,72.2,29.86,SSE,159,0.0,1.2,95,0.00,,---,0.00,0.00,VWS V14.01,2013-07-04 10:55:00,
2013-07-04 06:00:00,73.7,71.9,29.86,SSE,159,0.0,1.2,94,0.00,,---,0.00,0.00,VWS V14.01,2013-07-04 11:00:00,
2013-07-04 06:05:00,73.3,71.8,29.86,SSE,159,0.0,1.2,95,0.00,,---,0.00,0.00,VWS V14.01,2013-07-04 11:05:00,
2013-07-04 06:10:00,73.2,71.4,29.86,SSE,159,0.0,1.2,94,0.00,,---,0.00,0.00,VWS V14.01,2013-07-04 11:10:00,
2013-07-04 06:15:00,73.0,71.5,29.87,SSE,159,0.0,1.2,95,0.00,,---,0.00,0.00,VWS V14.01,2013-07-04 11:15:00,
2013-07-04 06:20:00,72.8,71.3,29.87,SSE,159,0.0,1.2,95,0.00,,---,0.00,0.00,VWS V14.01,2013-07-04 11:20:00,
2013-07-04 06:25:00,72.7,71.2,29.87,SSE,159,0.0,1.2,95,0.00,,---,0.00,0.00,VWS V14.01,2013-07-04 11:25:00,
2013-07-04 06:30:00,72.7,71.2,29.87,SSE,159,0.0,1.2,95,0.00,,---,0.00,0.00,VWS V14.01,2013-07-04 11:30:00,
2013-07-04 06:35:00,72.5,71.0,29.87,SSE,159,0.0,1.2,95,0.00,,---,0.00,0.00,VWS V14.01,2013-07-04 11:35:00,
2013-07-04 06:40:00,72.3,70.8,29.87,SSE,159,0.0,1.2,95,0.00,,---,0.00,0.00,VWS V14.01,2013-07-04 11:40:00,
2013-07-04 06:45:00,72.1,70.6,29.87,SSE,159,0.0,1.2,95,0.00,,---,0.00,7.00,VWS V14.01,2013-07-04 11:45:00,
2013-07-04 06:50:00,72.0,70.5,29.87,SSE,159,0.0,1.2,95,0.00,,---,0.00,11.00,VWS V14.01,2013-07-04 11:50:00,
2013-07-04 06:55:00,72.0,70.5,29.87,SSE,159,0.0,1.2,95,0.00,,---,0.00,16.00,VWS V14.01,2013-07-04 11:55:00,
2013-07-04 07:00:00,72.0,70.5,29.87,SSE,159,0.0,1.2,95,0.00,,---,0.00,21.00,VWS V14.01,2013-07-04 12:00:00,
2013-07-04 07:05:00,72.1,70.6,29.87,SSE,159,0.0,1.2,95,0.00,,---,0.00,25.00,VWS V14.01,2013-07-04 12:05:00,
2013-07-04 07:10:00,72.3,71.1,29.87,SSE,159,0.0,1.2,96,0.00,,---,0.00,28.00,VWS V14.01,2013-07-04 12:10:00,
2013-07-04 07:15:00,72.5,71.3,29.87,SSE,159,0.0,1.2,96,0.00,,---,0.00,30.00,VWS V14.01,2013-07-04 12:15:00,
2013-07-04 07:20:00,73.0,71.8,29.87,SSE,159,0.0,1.2,96,0.00,,---,0.00,35.00,VWS V14.01,2013-07-04 12:20:00,
2013-07-04 07:25:00,73.3,72.1,29.87,SSE,159,0.0,1.2,96,0.00,,---,0.00,37.00,VWS V14.01,2013-07-04 12:25:00,
2013-07-04 07:30:00,73.7,72.5,29.87,SSE,159,0.0,1.2,96,0.00,,---,0.00,39.00,VWS V14.01,2013-07-04 12:30:00,
2013-07-04 07:35:00,74.0,72.5,29.87,SSE,160,0.0,1.2,95,0.00,,---,0.00,44.00,VWS V14.01,2013-07-04 12:35:00,
2013-07-04 07:40:00,74.7,73.2,29.87,SSE,159,0.0,1.2,95,0.00,,---,0.00,49.00,VWS V14.01,2013-07-04 12:40:00,
2013-07-04 07:45:00,75.1,73.6,29.88,SSE,160,0.0,1.2,95,0.00,,---,0.00,53.00,VWS V14.01,2013-07-04 12:45:00,
2013-07-04 07:50:00,75.6,73.8,29.88,SSE,160,0.0,1.2,94,0.00,,---,0.00,56.00,VWS V14.01,2013-07-04 12:50:00,
2013-07-04 07:55:00,76.7,74.5,29.88,SSE,159,0.0,1.2,93,0.00,,---,0.00,58.00,VWS V14.01,2013-07-04 12:55:00,
2013-07-04 08:00:00,77.2,74.4,29.88,SSE,159,0.0,1.2,91,0.00,,---,0.00,60.00,VWS V14.01,2013-07-04 13:00:00,
2013-07-04 08:05:00,77.7,74.2,29.88,SSE,160,0.0,1.2,89,0.00,,---,0.00,62.00,VWS V14.01,2013-07-04 13:05:00,
2013-07-04 08:10:00,78.3,74.5,29.88,SSE,160,0.0,1.2,88,0.00,,---,0.00,63.00,VWS V14.01,2013-07-04 13:10:00,
2013-07-04 08:15:00,78.8,74.9,29.89,SSE,159,0.0,1.2,88,0.00,,---,0.00,65.00,VWS V14.01,2013-07-04 13:15:00,
2013-07-04 08:20:00,79.4,74.8,29.89,SSE,160,0.0,1.2,86,0.00,,---,0.00,67.00,VWS V14.01,2013-07-04 13:20:00,
2013-07-04 08:25:00,79.9,75.3,29.89,SSE,159,1.0,3.2,86,0.00,,---,0.00,69.00,VWS V14.01,2013-07-04 13:25:00,
2013-07-04 08:30:00,80.3,75.0,29.89,SSE,159,3.0,4.2,84,0.00,,---,0.00,70.00,VWS V14.01,2013-07-04 13:30:00,
2013-07-04 08:35:00,80.3,74.7,29.89,SSE,159,3.0,4.2,83,0.00,,---,0.00,72.00,VWS V14.01,2013-07-04 13:35:00,
2013-07-04 08:40:00,80.3,74.3,29.89,SSE,159,0.0,3.2,82,0.00,,---,0.00,72.00,VWS V14.01,2013-07-04 13:40:00,
2013-07-04 08:45:00,80.7,75.1,29.90,SSE,159,0.0,1.2,83,0.00,,---,0.00,76.00,VWS V14.01,2013-07-04 13:45:00,
2013-07-04 08:50:00,81.1,74.7,29.90,SSE,159,1.0,4.2,81,0.00,,---,0.00,79.00,VWS V14.01,2013-07-04 13:50:00,
2013-07-04 08:55:00,81.6,74.8,29.90,SSE,158,1.0,4.2,80,0.00,,---,0.00,81.00,VWS V14.01,2013-07-04 13:55:00,
2013-07-04 09:00:00,82.0,74.5,29.90,SSE,158,0.0,4.2,78,0.00,,---,0.00,84.00,VWS V14.01,2013-07-04 14:00:00,
2013-07-04 09:05:00,82.8,74.9,29.90,SSE,158,3.0,4.2,77,0.00,,---,0.00,86.00,VWS V14.01,2013-07-04 14:05:00,
2013-07-04 09:10:00,82.8,74.5,29.90,SSE,157,1.0,5.2,76,0.00,,---,0.00,88.00,VWS V14.01,2013-07-04 14:10:00,
2013-07-04 09:15:00,82.4,74.1,29.90,SSE,150,2.0,6.2,76,0.00,,---,0.00,91.00,VWS V14.01,2013-07-04 14:15:00,
2013-07-04 09:20:00,82.8,74.9,29.90,SE,136,2.0,4.2,77,0.00,,---,0.00,104.00,VWS V14.01,2013-07-04 14:20:00,
2013-07-04 09:25:00,83.6,74.4,29.90,ESE,112,1.0,6.2,74,0.00,,---,0.00,123.00,VWS V14.01,2013-07-04 14:25:00,
2013-07-04 09:30:00,83.6,74.0,29.90,ESE,112,2.0,6.2,73,0.00,,---,0.00,153.00,VWS V14.01,2013-07-04 14:30:00,
2013-07-04 09:35:00,83.4,73.8,29.90,ESE,114,3.0,6.2,73,0.00,,---,0.00,192.00,VWS V14.01,2013-07-04 14:35:00,
2013-07-04 09:40:00,83.0,74.3,29.90,ESE,114,4.0,7.2,75,0.00,,---,0.00,258.00,VWS V14.01,2013-07-04 14:40:00,
2013-07-04 09:45:00,82.8,74.5,29.90,ESE,115,1.0,5.2,76,0.00,,---,0.00,327.00,VWS V14.01,2013-07-04 14:45:00,
2013-07-04 09:50:00,83.6,75.2,29.90,ESE,115,1.0,6.2,76,0.00,,---,0.00,388.00,VWS V14.01,2013-07-04 14:50:00,
2013-07-04 09:55:00,84.0,74.8,29.90,East,101,1.0,6.2,74,0.00,,---,0.00,469.00,VWS V14.01,2013-07-04 14:55:00,
2013-07-04 10:00:00,84.1,74.5,29.91,East,88,1.0,6.2,73,0.00,,---,0.00,485.00,VWS V14.01,2013-07-04 15:00:00,
2013-07-04 10:05:00,84.1,74.9,29.91,East,88,3.0,5.2,74,0.00,,---,0.00,589.00,VWS V14.01,2013-07-04 15:05:00,
2013-07-04 10:10:00,84.3,74.7,29.91,East,89,0.0,6.2,73,0.00,,---,0.00,601.00,VWS V14.01,2013-07-04 15:10:00,
2013-07-04 10:15:00,84.0,74.0,29.91,East,92,1.0,9.2,72,0.00,,---,0.00,629.00,VWS V14.01,2013-07-04 15:15:00,
2013-07-04 10:20:00,84.0,74.4,29.91,East,92,2.0,5.2,73,0.00,,---,0.00,661.00,VWS V14.01,2013-07-04 15:20:00,
2013-07-04 10:25:00,84.1,74.1,29.91,East,88,4.0,6.2,72,0.00,,---,0.00,686.00,VWS V14.01,2013-07-04 15:25:00,
2013-07-04 10:30:00,85.1,74.2,29.91,East,98,4.0,8.2,70,0.00,,---,0.00,698.00,VWS V14.01,2013-07-04 15:30:00,
2013-07-04 10:35:00,85.9,74.6,29.91,East,95,3.0,7.2,69,0.00,,---,0.00,714.00,VWS V14.01,2013-07-04 15:35:00,
2013-07-04 10:40:00,86.3,74.5,29.91,East,92,3.0,6.2,68,0.00,,---,0.00,728.00,VWS V14.01,2013-07-04 15:40:00,
2013-07-04 10:45:00,86.7,74.9,29.90,East,88,3.0,7.2,68,0.00,,---,0.00,719.00,VWS V14.01,2013-07-04 15:45:00,
2013-07-04 10:50:00,86.5,74.7,29.90,East,90,4.0,10.2,68,0.00,,---,0.00,740.00,VWS V14.01,2013-07-04 15:50:00,
2013-07-04 10:55:00,85.7,74.8,29.90,ESE,108,2.0,8.2,70,0.00,,---,0.00,737.00,VWS V14.01,2013-07-04 15:55:00,
2013-07-04 11:00:00,86.1,74.3,29.90,SE,128,6.0,10.2,68,0.00,,---,0.00,722.00,VWS V14.01,2013-07-04 16:00:00,
2013-07-04 11:05:00,85.5,73.7,29.90,East,81,6.0,10.2,68,0.00,,---,0.00,770.00,VWS V14.01,2013-07-04 16:05:00,
2013-07-04 11:10:00,85.7,74.4,29.90,East,81,3.0,7.2,69,0.00,,---,0.00,782.00,VWS V14.01,2013-07-04 16:10:00,
2013-07-04 11:15:00,85.7,73.9,29.90,SE,134,5.0,9.2,68,0.00,,---,0.00,807.00,VWS V14.01,2013-07-04 16:15:00,
2013-07-04 11:20:00,85.7,73.9,29.91,SE,133,4.0,10.2,68,0.00,,---,0.00,809.00,VWS V14.01,2013-07-04 16:20:00,
2013-07-04 11:25:00,86.1,73.9,29.91,ESE,109,5.0,10.2,67,0.00,,---,0.00,802.00,VWS V14.01,2013-07-04 16:25:00,
2013-07-04 11:30:00,86.5,73.8,29.91,ESE,121,7.0,11.2,66,0.00,,---,0.00,837.00,VWS V14.01,2013-07-04 16:30:00,
2013-07-04 11:35:00,86.5,73.8,29.91,ESE,117,3.0,9.2,66,0.00,,---,0.00,830.00,VWS V14.01,2013-07-04 16:35:00,
2013-07-04 11:40:00,87.4,73.7,29.91,SE,128,5.0,10.2,64,0.00,,---,0.00,868.00,VWS V14.01,2013-07-04 16:40:00,
2013-07-04 11:45:00,87.8,74.1,29.91,ESE,109,5.0,11.2,64,0.00,,---,0.00,889.00,VWS V14.01,2013-07-04 16:45:00,
2013-07-04 11:50:00,87.4,73.7,29.90,SSE,153,6.0,11.2,64,0.00,,---,0.00,861.00,VWS V14.01,2013-07-04 16:50:00,
2013-07-04 11:55:00,86.7,74.0,29.90,SE,141,4.0,11.2,66,0.00,,---,0.00,886.00,VWS V14.01,2013-07-04 16:55:00,
2013-07-04 12:00:00,86.5,73.8,29.90,SE,134,6.0,12.2,66,0.00,,---,0.00,902.00,VWS V14.01,2013-07-04 17:00:00,
2013-07-04 12:05:00,86.7,73.5,29.91,East,88,5.0,13.2,65,0.00,,---,0.00,904.00,VWS V14.01,2013-07-04 17:05:00,
2013-07-04 12:10:00,87.0,73.8,29.91,ESE,103,3.0,13.2,65,0.00,,---,0.00,914.00,VWS V14.01,2013-07-04 17:10:00,
2013-07-04 12:15:00,87.6,73.9,29.91,ESE,107,4.0,10.2,64,0.00,,---,0.00,916.00,VWS V14.01,2013-07-04 17:15:00,
2013-07-04 12:20:00,87.0,73.4,29.90,ESE,119,4.0,13.2,64,0.00,,---,0.00,926.00,VWS V14.01,2013-07-04 17:20:00,
2013-07-04 12:25:00,87.0,73.4,29.90,East,101,5.0,11.2,64,0.00,,---,0.00,930.00,VWS V14.01,2013-07-04 17:25:00,
2013-07-04 12:30:00,87.4,74.2,29.90,ESE,115,3.0,12.2,65,0.00,,---,0.00,935.00,VWS V14.01,2013-07-04 17:30:00,
2013-07-04 12:35:00,88.2,74.5,29.90,East,90,5.0,11.2,64,0.00,,---,0.00,940.00,VWS V14.01,2013-07-04 17:35:00,
2013-07-04 12:40:00,88.2,74.5,29.90,ESE,115,6.0,10.2,64,0.00,,---,0.00,946.00,VWS V14.01,2013-07-04 17:40:00,
2013-07-04 12:45:00,88.6,74.4,29.90,East,84,7.0,10.2,63,0.00,,---,0.00,949.00,VWS V14.01,2013-07-04 17:45:00,
2013-07-04 12:50:00,89.0,74.3,29.89,SE,134,7.0,12.2,62,0.00,,---,0.00,956.00,VWS V14.01,2013-07-04 17:50:00,
2013-07-04 12:55:00,88.6,74.4,29.89,NE,49,6.0,11.2,63,0.00,,---,0.00,958.00,VWS V14.01,2013-07-04 17:55:00,
2013-07-04 13:00:00,87.6,73.5,29.89,East,88,4.0,10.2,63,0.00,,---,0.00,962.00,VWS V14.01,2013-07-04 18:00:00,
2013-07-04 13:05:00,87.4,73.7,29.89,SE,138,4.0,13.2,64,0.00,,---,0.00,967.00,VWS V14.01,2013-07-04 18:05:00,
2013-07-04 13:10:00,87.2,74.0,29.89,ENE,76,9.0,13.2,65,0.00,,---,0.00,969.00,VWS V14.01,2013-07-04 18:10:00,
2013-07-04 13:15:00,87.0,73.4,29.89,SSE,149,7.0,11.2,64,0.00,,---,0.00,972.00,VWS V14.01,2013-07-04 18:15:00,
2013-07-04 13:20:00,87.0,74.3,29.88,ENE,77,11.0,12.2,66,0.00,,---,0.00,983.00,VWS V14.01,2013-07-04 18:20:00,
2013-07-04 13:25:00,87.4,73.7,29.88,East,84,6.0,12.2,64,0.00,,---,0.00,977.00,VWS V14.01,2013-07-04 18:25:00,
2013-07-04 13:30:00,87.8,74.1,29.88,ENE,73,6.0,12.2,64,0.00,,---,0.00,977.00,VWS V14.01,2013-07-04 18:30:00,
2013-07-04 13:35:00,87.8,74.1,29.88,East,86,5.0,12.2,64,0.00,,---,0.00,979.00,VWS V14.01,2013-07-04 18:35:00,
2013-07-04 13:40:00,87.2,74.5,29.88,East,84,6.0,11.2,66,0.00,,---,0.00,977.00,VWS V14.01,2013-07-04 18:40:00,
2013-07-04 13:45:00,87.4,74.7,29.88,ESE,121,5.0,11.2,66,0.00,,---,0.00,981.00,VWS V14.01,2013-07-04 18:45:00,
2013-07-04 13:50:00,88.2,74.0,29.88,East,98,7.0,9.2,63,0.00,,---,0.00,979.00,VWS V14.01,2013-07-04 18:50:00,
2013-07-04 13:55:00,89.0,74.3,29.88,ESE,117,6.0,11.2,62,0.00,,---,0.00,979.00,VWS V14.01,2013-07-04 18:55:00,
2013-07-04 14:00:00,89.5,73.8,29.88,ENE,66,6.0,11.2,60,0.00,,---,0.00,984.00,VWS V14.01,2013-07-04 19:00:00,
2013-07-04 14:05:00,88.6,73.4,29.88,SE,144,4.0,12.2,61,0.00,,---,0.00,977.00,VWS V14.01,2013-07-04 19:05:00,
2013-07-04 14:10:00,88.0,73.8,29.88,ENE,59,5.0,12.2,63,0.00,,---,0.00,979.00,VWS V14.01,2013-07-04 19:10:00,
2013-07-04 14:15:00,88.2,74.0,29.88,East,96,9.0,11.2,63,0.00,,---,0.00,970.00,VWS V14.01,2013-07-04 19:15:00,
2013-07-04 14:20:00,88.0,73.8,29.87,ESE,123,9.0,11.2,63,0.00,,---,0.00,970.00,VWS V14.01,2013-07-04 19:20:00,
2013-07-04 14:25:00,88.2,73.6,29.87,ESE,114,8.0,14.2,62,0.00,,---,0.00,965.00,VWS V14.01,2013-07-04 19:25:00,
2013-07-04 14:30:00,89.3,74.1,29.87,East,83,7.0,11.2,61,0.00,,---,0.00,958.00,VWS V14.01,2013-07-04 19:30:00,
2013-07-04 14:35:00,88.4,73.7,29.87,ENE,77,4.0,12.2,62,0.00,,---,0.00,953.00,VWS V14.01,2013-07-04 19:35:00,
2013-07-04 14:40:00,88.6,73.9,29.87,SE,124,4.0,12.2,62,0.00,,---,0.00,939.00,VWS V14.01,2013-07-04 19:40:00,
2013-07-04 14:45:00,88.4,73.2,29.87,ESE,119,6.0,14.2,61,0.00,,---,0.00,930.00,VWS V14.01,2013-07-04 19:45:00,
2013-07-04 14:50:00,88.4,74.7,29.87,East,100,10.0,15.2,64,0.00,,---,0.00,898.00,VWS V14.01,2013-07-04 19:50:00,
2013-07-04 14:55:00,88.8,74.6,29.87,East,98,5.0,12.2,63,0.00,,---,0.00,937.00,VWS V14.01,2013-07-04 19:55:00,
2013-07-04 15:00:00,89.0,74.8,29.87,ESE,115,4.0,13.2,63,0.00,,---,0.00,932.00,VWS V14.01,2013-07-04 20:00:00,
2013-07-04 15:05:00,88.2,75.0,29.86,NE,46,8.0,13.2,65,0.00,,---,0.00,926.00,VWS V14.01,2013-07-04 20:05:00,
2013-07-04 15:10:00,87.6,74.8,29.86,ESE,120,3.0,12.2,66,0.00,,---,0.00,923.00,VWS V14.01,2013-07-04 20:10:00,
2013-07-04 15:15:00,88.2,75.0,29.86,NE,55,4.0,11.2,65,0.00,,---,0.00,914.00,VWS V14.01,2013-07-04 20:15:00,
2013-07-04 15:20:00,88.2,75.0,29.86,ENE,67,10.0,13.2,65,0.00,,---,0.00,909.00,VWS V14.01,2013-07-04 20:20:00,
2013-07-04 15:25:00,88.0,74.3,29.86,East,88,7.0,13.2,64,0.00,,---,0.00,898.00,VWS V14.01,2013-07-04 20:25:00,
2013-07-04 15:30:00,87.8,74.1,29.86,East,95,9.0,13.2,64,0.00,,---,0.00,893.00,VWS V14.01,2013-07-04 20:30:00,
2013-07-04 15:35:00,88.0,73.4,29.85,NE,54,6.0,14.2,62,0.00,,---,0.00,877.00,VWS V14.01,2013-07-04 20:35:00,
2013-07-04 15:40:00,88.0,73.4,29.85,East,80,5.0,12.2,62,0.00,,---,0.00,879.00,VWS V14.01,2013-07-04 20:40:00,
2013-07-04 15:45:00,88.6,73.9,29.85,ESE,113,10.0,13.2,62,0.00,,---,0.00,879.00,VWS V14.01,2013-07-04 20:45:00,
2013-07-04 15:50:00,88.4,74.2,29.85,East,101,11.0,15.2,63,0.00,,---,0.00,895.00,VWS V14.01,2013-07-04 20:50:00,
2013-07-04 15:55:00,88.8,74.6,29.85,ESE,116,12.0,13.2,63,0.00,,---,0.00,874.00,VWS V14.01,2013-07-04 20:55:00,
2013-07-04 16:00:00,88.6,73.4,29.85,East,91,11.0,13.2,61,0.00,,---,0.00,758.00,VWS V14.01,2013-07-04 21:00:00,
2013-07-04 16:05:00,88.2,74.0,29.85,ESE,115,8.0,12.2,63,0.00,,---,0.00,717.00,VWS V14.01,2013-07-04 21:05:00,
2013-07-04 16:10:00,87.8,74.1,29.85,ESE,104,4.0,14.2,64,0.00,,---,0.00,650.00,VWS V14.01,2013-07-04 21:10:00,
2013-07-04 16:15:00,87.8,73.6,29.85,ESE,103,5.0,12.2,63,0.00,,---,0.00,691.00,VWS V14.01,2013-07-04 21:15:00,
2013-07-04 16:20:00,88.0,73.8,29.84,ENE,57,5.0,13.2,63,0.00,,---,0.00,573.00,VWS V14.01,2013-07-04 21:20:00,
2013-07-04 16:25:00,88.8,73.6,29.84,East,85,7.0,11.2,61,0.00,,---,0.00,492.00,VWS V14.01,2013-07-04 21:25:00,
2013-07-04 16:30:00,88.0,71.9,29.84,ESE,104,9.0,12.2,59,0.00,,---,0.00,578.00,VWS V14.01,2013-07-04 21:30:00,
2013-07-04 16:35:00,87.6,73.0,29.84,ESE,112,9.0,11.2,62,0.00,,---,0.00,543.00,VWS V14.01,2013-07-04 21:35:00,
2013-07-04 16:40:00,87.6,73.5,29.84,ESE,115,6.0,13.2,63,0.00,,---,0.00,510.00,VWS V14.01,2013-07-04 21:40:00,
2013-07-04 16:45:00,87.4,73.3,29.84,ESE,111,11.0,13.2,63,0.00,,---,0.00,517.00,VWS V14.01,2013-07-04 21:45:00,
2013-07-04 16:50:00,87.8,73.6,29.84,East,86,11.0,13.2,63,0.00,,---,0.00,396.00,VWS V14.01,2013-07-04 21:50:00,
2013-07-04 16:55:00,87.8,73.6,29.84,ESE,105,5.0,14.2,63,0.00,,---,0.00,448.00,VWS V14.01,2013-07-04 21:55:00,
2013-07-04 17:00:00,86.3,73.2,29.84,ESE,115,7.0,14.2,65,0.00,,---,0.00,596.00,VWS V14.01,2013-07-04 22:00:00,
2013-07-04 17:05:00,85.7,73.5,29.84,East,87,3.0,13.2,67,0.00,,---,0.00,436.00,VWS V14.01,2013-07-04 22:05:00,
2013-07-04 17:10:00,85.7,73.5,29.84,East,94,7.0,13.2,67,0.00,,---,0.00,380.00,VWS V14.01,2013-07-04 22:10:00,
2013-07-04 17:15:00,86.3,73.6,29.84,SE,142,5.0,12.2,66,0.00,,---,0.00,315.00,VWS V14.01,2013-07-04 22:15:00,
2013-07-04 17:20:00,87.4,74.2,29.83,East,92,5.0,11.2,65,0.00,,---,0.00,374.00,VWS V14.01,2013-07-04 22:20:00,
2013-07-04 17:25:00,86.7,73.1,29.83,East,89,6.0,14.2,64,0.00,,---,0.00,323.00,VWS V14.01,2013-07-04 22:25:00,
2013-07-04 17:30:00,86.1,73.0,29.83,East,98,5.0,14.2,65,0.00,,---,0.00,434.00,VWS V14.01,2013-07-04 22:30:00,
2013-07-04 17:35:00,85.9,72.8,29.83,East,97,10.0,12.2,65,0.00,,---,0.00,318.00,VWS V14.01,2013-07-04 22:35:00,
2013-07-04 17:40:00,85.7,72.6,29.83,East,82,4.0,10.2,65,0.00,,---,0.00,285.00,VWS V14.01,2013-07-04 22:40:00,
2013-07-04 17:45:00,86.7,72.1,29.83,ESE,117,4.0,11.2,62,0.00,,---,0.00,462.00,VWS V14.01,2013-07-04 22:45:00,
2013-07-04 17:50:00,87.0,71.9,29.82,East,91,9.0,11.2,61,0.00,,---,0.00,418.00,VWS V14.01,2013-07-04 22:50:00,
2013-07-04 17:55:00,86.1,72.0,29.82,ESE,107,6.0,14.2,63,0.00,,---,0.00,547.00,VWS V14.01,2013-07-04 22:55:00,
2013-07-04 18:00:00,86.5,72.9,29.82,SE,136,13.0,14.2,64,0.00,,---,0.00,394.00,VWS V14.01,2013-07-04 23:00:00,
2013-07-04 18:05:00,86.1,72.5,29.83,ESE,110,5.0,14.2,64,0.00,,---,0.00,362.00,VWS V14.01,2013-07-04 23:05:00,
2013-07-04 18:10:00,86.3,72.2,29.83,ESE,107,3.0,13.2,63,0.00,,---,0.00,478.00,VWS V14.01,2013-07-04 23:10:00,
2013-07-04 18:15:00,87.0,72.4,29.83,SE,125,8.0,15.2,62,0.00,,---,0.00,543.00,VWS V14.01,2013-07-04 23:15:00,
2013-07-04 18:20:00,86.5,72.9,29.82,East,92,5.0,12.2,64,0.00,,---,0.00,503.00,VWS V14.01,2013-07-04 23:20:00,
2013-07-04 18:25:00,86.1,73.0,29.82,ESE,106,10.0,15.2,65,0.00,,---,0.00,431.00,VWS V14.01,2013-07-04 23:25:00,
2013-07-04 18:30:00,86.1,73.0,29.82,SE,143,6.0,13.2,65,0.00,,---,0.00,457.00,VWS V14.01,2013-07-04 23:30:00,
2013-07-04 18:35:00,86.3,74.1,29.82,SE,136,13.0,14.2,67,0.00,,---,0.00,429.00,VWS V14.01,2013-07-04 23:35:00,
2013-07-04 18:40:00,87.0,73.8,29.82,SE,130,7.0,15.2,65,0.00,,---,0.00,403.00,VWS V14.01,2013-07-04 23:40:00,
2013-07-04 18:45:00,86.5,73.3,29.82,ESE,104,9.0,13.2,65,0.00,,---,0.00,369.00,VWS V14.01,2013-07-04 23:45:00,
2013-07-04 18:50:00,85.7,73.5,29.82,ESE,115,10.0,12.2,67,0.00,,---,0.00,334.00,VWS V14.01,2013-07-04 23:50:00,
2013-07-04 18:55:00,85.3,73.6,29.82,SSE,147,6.0,13.2,68,0.00,,---,0.00,297.00,VWS V14.01,2013-07-04 23:55:00,
2013-07-04 19:00:00,85.1,73.4,29.82,East,82,5.0,13.2,68,0.00,,---,0.00,253.00,VWS V14.01,2013-07-05 00:00:00,
2013-07-04 19:05:00,85.1,73.8,29.82,East,86,3.0,13.2,69,0.00,,---,0.00,221.00,VWS V14.01,2013-07-05 00:05:00,
2013-07-04 19:10:00,85.1,73.4,29.82,ENE,59,9.0,15.2,68,0.00,,---,0.00,199.00,VWS V14.01,2013-07-05 00:10:00,
2013-07-04 19:15:00,84.7,73.0,29.82,ESE,116,9.0,13.2,68,0.00,,---,0.00,176.00,VWS V14.01,2013-07-05 00:15:00,
2013-07-04 19:20:00,84.5,73.2,29.83,East,97,3.0,12.2,69,0.00,,---,0.00,153.00,VWS V14.01,2013-07-05 00:20:00,
2013-07-04 19:25:00,84.3,73.0,29.83,ESE,115,3.0,13.2,69,0.00,,---,0.00,130.00,VWS V14.01,2013-07-05 00:25:00,
2013-07-04 19:30:00,84.3,73.0,29.83,SE,124,11.0,12.2,69,0.00,,---,0.00,116.00,VWS V14.01,2013-07-05 00:30:00,
2013-07-04 19:35:00,84.3,73.0,29.83,ESE,114,4.0,15.2,69,0.00,,---,0.00,81.00,VWS V14.01,2013-07-05 00:35:00,
2013-07-04 19:40:00,84.5,73.2,29.83,ESE,119,5.0,13.2,69,0.00,,---,0.00,46.00,VWS V14.01,2013-07-05 00:40:00,
2013-07-04 19:45:00,83.6,73.2,29.83,East,89,6.0,12.2,71,0.00,,---,0.00,37.00,VWS V14.01,2013-07-05 00:45:00,
2013-07-04 19:50:00,83.2,73.7,29.83,ESE,105,6.0,11.2,73,0.00,,---,0.00,33.00,VWS V14.01,2013-07-05 00:50:00,
2013-07-04 19:55:00,82.8,73.7,29.83,ESE,118,3.0,11.2,74,0.00,,---,0.00,26.00,VWS V14.01,2013-07-05 00:55:00,
2013-07-04 20:00:00,82.8,73.7,29.83,SE,126,3.0,11.2,74,0.00,,---,0.00,26.00,VWS V14.01,2013-07-05 01:00:00,
2013-07-04 20:05:00,82.8,73.7,29.83,SE,126,7.0,12.2,74,0.00,,---,0.00,23.00,VWS V14.01,2013-07-05 01:05:00,
2013-07-04 20:10:00,83.2,73.7,29.83,ESE,119,10.0,11.2,73,0.00,,---,0.00,19.00,VWS V14.01,2013-07-05 01:10:00,
2013-07-04 20:15:00,83.0,73.1,29.83,East,95,3.0,11.2,72,0.00,,---,0.00,14.00,VWS V14.01,2013-07-05 01:15:00,
2013-07-04 20:20:00,82.8,72.9,29.83,ESE,112,4.0,13.2,72,0.00,,---,0.00,11.00,VWS V14.01,2013-07-05 01:20:00,
2013-07-04 20:25:00,82.6,73.1,29.83,ESE,111,3.0,11.2,73,0.00,,---,0.00,7.00,VWS V14.01,2013-07-05 01:25:00,
2013-07-04 20:30:00,82.6,73.1,29.83,East,99,6.0,10.2,73,0.00,,---,0.00,0.00,VWS V14.01,2013-07-05 01:30:00,
2013-07-04 20:35:00,82.4,72.9,29.83,East,97,5.0,10.2,73,0.00,,---,0.00,0.00,VWS V14.01,2013-07-05 01:35:00,
2013-07-04 20:40:00,82.6,73.1,29.83,East,98,1.0,10.2,73,0.00,,---,0.00,0.00,VWS V14.01,2013-07-05 01:40:00,
2013-07-04 20:45:00,82.2,73.1,29.83,East,98,2.0,11.2,74,0.00,,---,0.00,0.00,VWS V14.01,2013-07-05 01:45:00,
2013-07-04 20:50:00,81.8,73.1,29.83,ESE,117,3.0,8.2,75,0.00,,---,0.00,0.00,VWS V14.01,2013-07-05 01:50:00,
2013-07-04 20:55:00,81.6,73.3,29.83,ESE,121,7.0,10.2,76,0.00,,---,0.00,0.00,VWS V14.01,2013-07-05 01:55:00,
2013-07-04 21:00:00,81.4,73.5,29.83,ESE,107,5.0,11.2,77,0.00,,---,0.00,0.00,VWS V14.01,2013-07-05 02:00:00,
2013-07-04 21:05:00,81.4,73.9,29.84,ESE,115,4.0,10.2,78,0.00,,---,0.00,0.00,VWS V14.01,2013-07-05 02:05:00,
2013-07-04 21:10:00,81.4,73.9,29.84,East,99,5.0,10.2,78,0.00,,---,0.00,0.00,VWS V14.01,2013-07-05 02:10:00,
2013-07-04 21:15:00,82.2,74.3,29.84,East,90,3.0,7.2,77,0.00,,---,0.00,0.00,VWS V14.01,2013-07-05 02:15:00,
2013-07-04 21:20:00,82.0,74.1,29.85,ESE,107,5.0,10.2,77,0.00,,---,0.00,0.00,VWS V14.01,2013-07-05 02:20:00,
2013-07-04 21:25:00,81.8,73.9,29.85,ESE,113,2.0,8.2,77,0.00,,---,0.00,0.00,VWS V14.01,2013-07-05 02:25:00,
2013-07-04 21:30:00,81.8,73.9,29.85,ESE,109,1.0,10.2,77,0.00,,---,0.00,0.00,VWS V14.01,2013-07-05 02:30:00,
2013-07-04 21:35:00,81.8,73.9,29.85,ESE,107,4.0,7.2,77,0.00,,---,0.00,0.00,VWS V14.01,2013-07-05 02:35:00,
2013-07-04 21:40:00,81.4,73.1,29.85,SE,127,1.0,7.2,76,0.00,,---,0.00,0.00,VWS V14.01,2013-07-05 02:40:00,
2013-07-04 21:45:00,81.6,74.1,29.85,ESE,113,3.0,8.2,78,0.00,,---,0.00,0.00,VWS V14.01,2013-07-05 02:45:00,
2013-07-04 21:50:00,81.6,74.1,29.85,East,96,2.0,10.2,78,0.00,,---,0.00,0.00,VWS V14.01,2013-07-05 02:50:00,
2013-07-04 21:55:00,81.2,74.1,29.85,East,90,3.0,10.2,79,0.00,,---,0.00,0.00,VWS V14.01,2013-07-05 02:55:00,
2013-07-04 22:00:00,81.1,74.0,29.85,ESE,105,6.0,7.2,79,0.00,,---,0.00,0.00,VWS V14.01,2013-07-05 03:00:00,
2013-07-04 22:05:00,81.1,74.3,29.86,ESE,103,4.0,8.2,80,0.00,,---,0.00,0.00,VWS V14.01,2013-07-05 03:05:00,
2013-07-04 22:10:00,80.9,74.2,29.86,ESE,121,0.0,7.2,80,0.00,,---,0.00,0.00,VWS V14.01,2013-07-05 03:10:00,
2013-07-04 22:15:00,80.9,74.5,29.86,East,99,4.0,6.2,81,0.00,,---,0.00,0.00,VWS V14.01,2013-07-05 03:15:00,
2013-07-04 22:20:00,80.9,74.5,29.87,East,100,4.0,7.2,81,0.00,,---,0.00,0.00,VWS V14.01,2013-07-05 03:20:00,
2013-07-04 22:25:00,81.8,75.0,29.87,East,101,3.0,6.2,80,0.00,,---,0.00,0.00,VWS V14.01,2013-07-05 03:25:00,
2013-07-04 22:30:00,82.0,75.2,29.87,East,101,2.0,4.2,80,0.00,,---,0.00,0.00,VWS V14.01,2013-07-05 03:30:00,
2013-07-04 22:35:00,81.8,75.0,29.87,ESE,103,3.0,7.2,80,0.00,,---,0.00,0.00,VWS V14.01,2013-07-05 03:35:00,
2013-07-04 22:39:00,81.6,74.8,29.87,East,99,1.0,7.2,80,0.00,,---,0.00,0.00,VWS V14.01,2013-07-05 03:39:00,
2013-07-04 22:40:00,81.6,74.8,29.87,East,99,2.0,7.2,80,0.00,,---,0.00,0.00,VWS V14.01,2013-07-05 03:40:00,
2013-07-04 22:44:00,81.2,74.4,29.87,East,99,1.0,5.2,80,0.00,,---,0.00,0.00,VWS V14.01,2013-07-05 03:44:00,
2013-07-04 22:45:00,81.2,74.4,29.87,ESE,117,3.0,8.2,80,0.00,,---,0.00,0.00,VWS V14.01,2013-07-05 03:45:00,
2013-07-04 22:49:00,80.9,74.5,29.87,East,93,2.0,6.2,81,0.00,,---,0.00,0.00,VWS V14.01,2013-07-05 03:49:00,
2013-07-04 22:50:00,80.9,74.5,29.87,East,94,2.0,6.2,81,0.00,,---,0.00,0.00,VWS V14.01,2013-07-05 03:50:00,
2013-07-04 22:54:00,80.9,74.5,29.87,East,94,2.0,6.2,81,0.00,,---,0.00,0.00,VWS V14.01,2013-07-05 03:54:00,
2013-07-04 22:55:00,80.9,74.9,29.87,East,94,1.0,6.2,82,0.00,,---,0.00,0.00,VWS V14.01,2013-07-05 03:55:00,
2013-07-04 22:59:00,80.9,74.9,29.87,East,94,3.0,4.2,82,0.00,,---,0.00,0.00,VWS V14.01,2013-07-05 03:59:00,
2013-07-04 23:00:00,80.9,74.5,29.87,East,94,1.0,4.2,81,0.00,,---,0.00,0.00,VWS V14.01,2013-07-05 04:00:00,
2013-07-04 23:01:00,80.9,74.5,29.87,East,94,3.0,4.2,81,0.00,,---,0.00,0.00,VWS V14.01,2013-07-05 04:01:00,
2013-07-04 23:05:00,80.9,74.5,29.87,East,97,5.0,7.2,81,0.00,,---,0.00,0.00,VWS V14.01,2013-07-05 04:05:00,
2013-07-04 23:06:00,80.9,74.5,29.87,East,97,5.0,7.2,81,0.00,,---,0.00,0.00,VWS V14.01,2013-07-05 04:06:00,
2013-07-04 23:10:00,80.7,74.7,29.87,SE,125,4.0,8.2,82,0.00,,---,0.00,0.00,VWS V14.01,2013-07-05 04:10:00,
2013-07-04 23:11:00,80.7,74.7,29.87,ESE,121,4.0,8.2,82,0.00,,---,0.00,0.00,VWS V14.01,2013-07-05 04:11:00,
2013-07-04 23:15:00,80.5,74.5,29.87,ESE,123,2.0,7.2,82,0.00,,---,0.00,0.00,VWS V14.01,2013-07-05 04:15:00,
2013-07-04 23:16:00,80.5,74.5,29.87,ESE,123,3.0,7.2,82,0.00,,---,0.00,0.00,VWS V14.01,2013-07-05 04:16:00,
2013-07-04 23:20:00,80.5,74.9,29.87,ESE,103,3.0,7.2,83,0.00,,---,0.00,0.00,VWS V14.01,2013-07-05 04:20:00,
2013-07-04 23:21:00,80.5,74.9,29.87,ESE,105,3.0,7.2,83,0.00,,---,0.00,0.00,VWS V14.01,2013-07-05 04:21:00,
2013-07-04 23:25:00,80.5,74.9,29.87,ESE,115,3.0,8.2,83,0.00,,---,0.00,0.00,VWS V14.01,2013-07-05 04:25:00,
2013-07-04 23:26:00,80.5,74.9,29.87,ESE,115,4.0,8.2,83,0.00,,---,0.00,0.00,VWS V14.01,2013-07-05 04:26:00,
2013-07-04 23:30:00,80.5,74.5,29.88,SE,128,4.0,9.2,82,0.00,,---,0.00,0.00,VWS V14.01,2013-07-05 04:30:00,
2013-07-04 23:31:00,80.5,74.5,29.88,SE,132,3.0,9.2,82,0.00,,---,0.00,0.00,VWS V14.01,2013-07-05 04:31:00,
2013-07-04 23:35:00,80.5,74.5,29.88,ESE,104,3.0,7.2,82,0.00,,---,0.00,0.00,VWS V14.01,2013-07-05 04:35:00,
2013-07-04 23:36:00,80.5,74.5,29.88,ESE,104,5.0,7.2,82,0.00,,---,0.00,0.00,VWS V14.01,2013-07-05 04:36:00,
2013-07-04 23:40:00,81.1,74.7,29.88,ESE,123,3.0,7.2,81,0.00,,---,0.00,0.00,VWS V14.01,2013-07-05 04:40:00,
2013-07-04 23:41:00,80.9,74.5,29.88,SE,129,3.0,7.2,81,0.00,,---,0.00,0.00,VWS V14.01,2013-07-05 04:41:00,
2013-07-04 23:45:00,81.6,74.8,29.88,SSE,148,5.0,8.2,80,0.00,,---,0.00,0.00,VWS V14.01,2013-07-05 04:45:00,
2013-07-04 23:46:00,81.6,74.8,29.88,SSE,154,4.0,8.2,80,0.00,,---,0.00,0.00,VWS V14.01,2013-07-05 04:46:00,
2013-07-04 23:50:00,81.6,74.8,29.88,SE,124,3.0,10.2,80,0.00,,---,0.00,0.00,VWS V14.01,2013-07-05 04:50:00,
2013-07-04 23:51:00,81.6,74.8,29.88,SE,124,3.0,10.2,80,0.00,,---,0.00,0.00,VWS V14.01,2013-07-05 04:51:00,
2013-07-04 23:55:00,81.4,74.6,29.88,ESE,119,2.0,7.2,80,0.00,,---,0.00,0.00,VWS V14.01,2013-07-05 04:55:00,
2013-07-04 23:56:00,81.4,74.6,29.88,ESE,119,2.0,7.2,80,0.00,,---,0.00,0.00,VWS V14.01,2013-07-05 04:56:00,